Weather History for Omaha Offutt, NE

Change the Weather History Date:

Sunday, August 18, 2013

  Actual Average Record
Temperature  
Mean Temperature 65 °F -  
Max Temperature 81 °F 82 °F 102 °F (2003)
Min Temperature 50 °F 63 °F 46 °F (2012)
Growing Degree Days 15 (Base 50)    
Moisture  
Dew Point 56 °F    
Average Humidity 84    
Maximum Humidity 100    
Minimum Humidity 47    
Precipitation  
Precipitation 0.00 in - - ()
Sea Level Pressure  
Sea Level Pressure 30.13 in    
Wind  
Wind Speed 4 mph (ESE)    
Max Wind Speed 14 mph    
Max Gust Speed 20 mph    
Visibility 9 miles    
Events      
Averages and records for this station are not official NWS values.
T = Trace of Precipitation, MM = Missing Value Source: NWS Daily Summary

Daily Weather History Graph

Daily Weather History Graph

Search for Another Location

Airport:

Trip Planner

Search our weather history database for the weather conditions in past years. The results will help you decide how hot, cold, wet, or windy it might be!

Date:

Astronomy

Aug. 18, 2013 Rise Set
Actual Time 6:36 AM CDT 8:17 PM CDT
Civil Twilight 6:07 AM CDT 8:46 PM CDT
Nautical Twilight 5:31 AM CDT 9:22 PM CDT
Astronomical Twilight 4:53 AM CDT 9:59 PM CDT
Moon 6:25 PM CDT (8/18) 3:46 AM CDT (8/18)
Length of Visible Light 14h 39m
Length of Day
13h 41m
Waxing Gibbous, 92% of the Moon is Illuminated
Aug 18
Waxing Gibbous
Aug 20
Full
Aug 28
Last Quarter
Sep 5
New
Sep 12
First Quarter

Hourly Weather History & Observations

Time (CDT) Temp. Heat Index Dew Point Humidity Pressure Visibility Wind Dir Wind Speed Gust Speed Precip Events Conditions
12:58 AM 54.9 °F - 54.5 °F 99% 30.14 in 10.0 mi East 2.3 mph - N/A   Clear
1:58 AM 54.3 °F - 54.1 °F 99% 30.14 in 10.0 mi Calm Calm - N/A   Clear
2:58 AM 53.4 °F - 53.2 °F 99% 30.14 in 10.0 mi Calm Calm - N/A   Clear
3:58 AM 52.2 °F - 52.2 °F 100% 30.14 in 10.0 mi ESE 1.2 mph - N/A   Clear
4:08 AM 51.8 °F - 51.8 °F 100% 30.14 in 10.0 mi ESE 1.2 mph - N/A   Clear
4:28 AM 51.8 °F - 51.8 °F 100% 30.14 in 10.0 mi East 2.3 mph - N/A   Clear
4:38 AM 50.0 °F - 50.0 °F 100% 30.14 in 9.0 mi East 3.5 mph - N/A   Clear
4:58 AM 51.1 °F - 51.1 °F 100% 30.14 in 7.0 mi East 2.3 mph - N/A   Clear
5:08 AM 53.6 °F - 53.6 °F 100% 30.14 in 10.0 mi East 2.3 mph - N/A   Clear
5:13 AM 51.8 °F - 51.8 °F 100% 30.14 in 9.0 mi ESE 2.3 mph - N/A   Clear
5:58 AM 51.1 °F - 51.1 °F 100% 30.15 in 7.0 mi ESE 2.3 mph - N/A   Clear
6:13 AM 51.8 °F - 51.8 °F 100% 30.15 in 4.0 mi ESE 2.3 mph - N/A   Clear
6:23 AM 50.0 °F - 50.0 °F 100% 30.15 in 2.0 mi ESE 2.3 mph - N/A   Clear
6:43 AM 50.0 °F - 50.0 °F 100% 30.16 in 3.0 mi East 2.3 mph - N/A   Clear
6:58 AM 50.9 °F - 50.9 °F 100% 30.17 in 10.0 mi East 3.5 mph - N/A   Clear
7:58 AM 58.3 °F - 58.3 °F 100% 30.16 in 10.0 mi East 2.3 mph - N/A   Clear
8:58 AM 62.1 °F - 62.1 °F 100% 30.18 in 10.0 mi SE 4.6 mph - N/A   Clear
9:58 AM 70.0 °F - 60.3 °F 71% 30.17 in 10.0 mi ESE 5.8 mph - N/A   Clear
10:58 AM 74.8 °F - 60.1 °F 60% 30.16 in 10.0 mi SE 6.9 mph - N/A   Clear
11:58 AM 76.8 °F - 57.9 °F 52% 30.15 in 10.0 mi South 10.4 mph - N/A   Clear
12:58 PM 78.3 °F - 57.4 °F 49% 30.13 in 10.0 mi SSE 11.5 mph - N/A   Clear
1:58 PM 79.9 °F - 58.3 °F 48% 30.11 in 10.0 mi SSE 12.7 mph - N/A   Clear
2:58 PM 80.4 °F 80.9 °F 58.3 °F 47% 30.10 in 10.0 mi SSE 6.9 mph 19.6 mph N/A   Clear
3:58 PM 80.6 °F 81.1 °F 59.2 °F 48% 30.09 in 10.0 mi South 9.2 mph - N/A   Partly Cloudy
4:58 PM 79.9 °F - 59.9 °F 50% 30.08 in 10.0 mi SE 12.7 mph - N/A   Partly Cloudy
5:58 PM 80.2 °F 81.1 °F 60.8 °F 51% 30.07 in 10.0 mi SSE 13.8 mph - N/A   Partly Cloudy
6:58 PM 78.3 °F - 61.5 °F 56% 30.06 in 10.0 mi SE 12.7 mph - N/A   Clear
7:58 PM 75.2 °F - 61.9 °F 63% 30.06 in 10.0 mi SE 6.9 mph - N/A   Clear
8:58 PM 66.7 °F - 62.4 °F 86% 30.07 in 10.0 mi ESE 4.6 mph - N/A   Clear
9:58 PM 63.1 °F - 62.2 °F 97% 30.08 in 10.0 mi ESE 3.5 mph - N/A   Clear
10:58 PM 62.1 °F - 61.9 °F 99% 30.08 in 10.0 mi ESE 3.5 mph - N/A   Clear
11:58 PM 59.7 °F - 59.4 °F 99% 30.09 in 10.0 mi East 3.5 mph - N/A   Partly Cloudy